CZ-3B R/B

Last updated on Aug. 8, 2020, 12:02 a.m. UTC

1 45864U 20045B   20220.51090135  .00018885 -85516-7  13887-2 0  9990
2 45864  28.5385  96.3303 7210892 197.1820 111.7830  2.39819563   222
UTC
Height (km)
Latitude
Longitude
Inclination
Orbital Period
UTC large
Height (km)
Speed (km/s)
/
Latitude / Longitude
Inclination (degrees)
Orbital Period (minutes)
Azimuth
Elevation
Range (km)
Doppler Factor
iOS Compass Heading
iOS Angle

Next 30 passes for location: Hong Kong

Rise time Rise Azimuth (degrees) Set time Set Azimuth (degrees) Duration Max altitude (degrees)

No matching passes for this satellites